Home > Weather > Copenhagen > Past weeks

Flag for Denmark Past Weather in Copenhagen, Denmark — Yesterday and Last 2 Weeks

Now
72 °F

Passing clouds.


Feels Like: 76 °F
Forecast: 53 / 71 °F
Wind: 6 mph from Southwest

Location: Koebenhavn-Kastrup Airport

Current Time: May 24, 2016 at 5:46:48 PM

Latest Report: May 24, 2016 at 5:20 PM


Visibility: N/A

Pressure: 29.83 "Hg

Humidity: 61%

Dew Point: 57 °F

Location of CopenhagenLocation

Past Weather in Copenhagen — Graph

°F

Copenhagen Temperature Yesterday

Maximum temperature yesterday: 68 °F (at 9:20 AM)
Minimum temperature yesterday: 57 °F (at 3:20 AM)
Average temperature yesterday: 63 °F

High & Low Weather Summary for the Past Weeks

 TemperatureHumidityPressure
High75 °F (May 24, 1:50 PM)100% (May 20, 11:50 PM)30.21 "Hg (May 20, 11:50 PM)
Low43 °F (May 13, 4:20 AM)32% (May 12, 3:20 PM)29.53 "Hg (May 13, 6:50 PM)
Average57 °F68%29.85 "Hg
* Reported May 9 4:20 PM — May 24 4:20 PM, Copenhagen, Weather by CustomWeather, © 2016

Note: Actual official high and low records may vary slightly from our data, if they occured in-between our weather recording intervals... More about our weather records

Advertising

Copenhagen Weather History for the Previous 24 Hours

Scroll right to see more
 ConditionsComfort  
Time TempWeatherWind HumidityBarometerVisibility
4:20 PM
Tue, May 24
72 °FPassing clouds.7 mph57%29.83 "HgN/A
3:50 PM72 °FPassing clouds.6 mph61%29.83 "HgN/A
3:20 PM70 °FPassing clouds.7 mph64%29.83 "HgN/A
2:50 PM70 °FPassing clouds.8 mph60%29.83 "HgN/A
2:20 PM72 °FSunny.9 mph61%29.83 "Hg10 mi
1:50 PM75 °FSunny.1 mph61%29.83 "Hg10 mi
1:20 PM73 °FPassing clouds.8 mph61%29.83 "HgN/A
12:50 PM73 °FPassing clouds.10 mph61%29.80 "HgN/A
12:20 PM72 °FSunny.9 mph65%29.80 "Hg10 mi
11:50 AM70 °FSunny.10 mph64%29.80 "Hg10 mi
11:20 AM68 °FSunny.10 mph69%29.83 "Hg10 mi
10:50 AM66 °FSunny.10 mph68%29.83 "Hg10 mi
10:20 AM64 °FSunny.10 mph73%29.83 "Hg10 mi
9:50 AM63 °FSunny.10 mph77%29.80 "Hg10 mi
9:20 AM63 °FSunny.10 mph77%29.80 "Hg10 mi
8:50 AM63 °FSunny.9 mph77%29.83 "Hg10 mi
8:20 AM63 °FPassing clouds.8 mph77%29.80 "HgN/A
7:50 AM61 °FSunny.10 mph83%29.80 "Hg10 mi
7:20 AM61 °FSunny.9 mph83%29.80 "Hg10 mi
6:50 AM59 °FPassing clouds.10 mph82%29.80 "HgN/A
6:20 AM59 °FSunny.12 mph82%29.80 "Hg10 mi
5:50 AM57 °FSunny.14 mph88%29.80 "Hg10 mi
5:20 AM57 °FClear.14 mph88%29.80 "Hg10 mi
4:50 AM57 °FClear.15 mph88%29.80 "Hg10 mi
4:20 AM57 °FClear.13 mph88%29.80 "Hg10 mi
3:50 AM57 °FClear.10 mph88%29.80 "Hg10 mi
3:20 AM57 °FClear.10 mph88%29.80 "Hg10 mi
2:50 AM59 °FPassing clouds.7 mph82%29.80 "HgN/A
2:20 AM59 °FClear.9 mph82%29.83 "Hg10 mi
1:50 AM59 °FClear.9 mph82%29.83 "Hg10 mi
1:20 AM59 °FClear.9 mph77%29.83 "Hg10 mi
12:50 AM59 °FClear.14 mph82%29.83 "Hg10 mi
12:20 AM59 °FClear.13 mph77%29.83 "Hg10 mi
11:50 PM
Mon, May 23
59 °FClear.15 mph82%29.83 "Hg10 mi
11:20 PM59 °FClear.14 mph82%29.83 "Hg10 mi
10:50 PM59 °FPassing clouds.14 mph82%29.83 "HgN/A
10:20 PM61 °FSunny.10 mph77%29.83 "Hg10 mi
9:50 PM61 °FSunny.15 mph77%29.83 "Hg10 mi
9:20 PM63 °FSunny.15 mph73%29.83 "Hg10 mi
8:50 PM63 °FSunny.12 mph77%29.83 "Hg10 mi
8:20 PM64 °FPartly sunny.13 mph78%29.83 "HgN/A
7:50 PM64 °FSunny.13 mph73%29.80 "Hg10 mi
7:20 PM66 °FSunny.10 mph73%29.80 "Hg10 mi
6:50 PM68 °FSunny.10 mph69%29.80 "Hg10 mi
6:20 PM68 °FSunny.12 mph69%29.80 "Hg10 mi
5:50 PM68 °FSunny.13 mph69%29.80 "Hg10 mi
5:20 PM68 °FSunny.15 mph73%29.80 "Hg10 mi
Weather by CustomWeather, © 2016

See weather overviewHow to use our weather pages